Date,TemperatureHighF,TemperatureAvgF,TemperatureLowF,DewpointHighF,DewpointAvgF,DewpointLowF,HumidityHigh,HumidityAvg,HumidityLow,PressureMaxIn,PressureMinIn,WindSpeedMaxMPH,WindSpeedAvgMPH,GustSpeedMaxMPH,PrecipitationSumIn
2013-1-1,56,46,33,41,24,0,89,51,20,30.22,30.06,10,1,10,0.00
2013-1-2,63,54,40,24,16,11,50,23,16,30.09,29.97,17,2,17,0.00
2013-1-3,65,52,38,32,16,7,57,28,11,30.14,30.02,21,1,21,0.00
2013-1-4,64,46,33,26,20,8,62,40,12,30.23,30.11,6,0,6,0.00
2013-1-5,64,45,32,34,27,18,73,53,17,30.26,30.13,5,0,5,0.00
2013-1-6,54,46,42,44,39,33,91,76,57,30.15,29.99,16,1,16,0.01
2013-1-7,65,54,43,36,28,16,68,40,17,30.07,29.94,13,1,13,0.00
2013-1-8,75,57,44,39,32,17,67,42,19,30.06,29.96,13,1,13,0.00
2013-1-9,69,52,43,43,38,34,84,60,33,30.07,29.93,6,0,6,0.00
2013-1-10,53,47,36,44,31,18,86,57,26,30.07,29.86,16,1,16,0.00
2013-1-11,52,41,30,27,22,17,73,47,28,30.17,30.01,12,0,12,0.00
2013-1-12,53,39,30,24,21,12,75,53,20,30.13,30.03,12,1,12,0.00
2013-1-13,53,39,28,26,20,7,79,52,22,30.15,30.01,12,1,12,0.00
2013-1-14,50,42,34,11,2,-3,36,19,12,30.32,30.11,21,2,21,0.00
2013-1-15,59,44,31,22,15,8,52,32,19,30.41,30.27,14,1,14,0.00
2013-1-16,68,53,37,35,22,9,62,34,16,30.34,30.06,17,2,17,0.00
2013-1-17,72,63,46,20,15,10,36,16,9,30.10,29.99,18,2,18,0.00
2013-1-18,72,54,41,31,20,3,49,29,12,30.12,30.01,12,0,13,0.00
2013-1-19,74,55,41,28,19,12,47,28,10,30.15,30.03,8,0,12,0.00
2013-1-20,74,54,40,28,17,8,48,27,9,30.11,29.96,14,1,14,0.00
2013-1-21,77,57,41,29,16,6,53,25,8,30.05,29.96,11,1,11,0.00
2013-1-22,76,54,39,26,19,9,46,29,9,30.08,29.95,7,0,7,0.00
2013-1-23,74,57,47,49,32,23,85,40,21,30.08,29.95,10,0,10,0.09
2013-1-24,59,54,50,55,51,47,92,89,81,30.14,30.03,7,0,7,0.83
2013-1-25,58,56,54,56,53,52,93,93,91,30.09,29.90,2,0,2,0.28
2013-1-26,69,57,52,56,51,41,93,83,53,29.92,29.80,7,0,10,0.01
2013-1-27,56,52,50,50,38,0,90,66,68,29.97,29.88,10,0,10,0.02
2013-1-28,58,50,44,31,26,0,54,40,30,30.14,29.97,13,1,13,0.00
2013-1-29,60,49,36,42,30,12,82,50,33,30.18,30.06,10,0,10,0.00
2013-1-30,70,49,-48,42,29,-60,69,46,27,30.29,30.12,10,0,10,0.00
2013-1-31,78,53,40,40,35,0,81,56,19,30.20,30.03,12,0,12,0.00
2013-2-1,74,49,43,44,37,35,76,64,25,30.12,30.04,0,0,6,0.00
2013-2-2,67,61,51,49,31,0,72,33,34,30.15,30.05,6,0,6,0.00
2013-2-3,75,59,47,54,42,36,79,57,25,30.09,29.92,8,0,8,0.00
2013-2-4,78,54,42,69,44,36,84,73,25,30.04,29.89,10,0,10,0.00
2013-2-5,60,50,46,52,45,36,90,83,64,30.04,29.91,8,0,8,0.00
2013-2-6,66,54,44,48,45,39,90,74,48,30.07,29.91,10,0,10,0.00
2013-2-7,58,49,38,50,42,36,91,79,64,30.10,29.90,9,0,9,0.00
2013-2-8,53,44,37,44,36,32,90,77,52,29.93,29.81,14,1,18,0.03
2013-2-9,59,42,32,50,33,29,92,75,39,30.06,29.89,7,0,7,0.00
2013-2-10,55,43,33,48,36,30,90,76,51,30.06,29.95,11,0,11,0.00
2013-2-11,62,49,36,44,21,9,90,45,15,30.17,30.01,16,1,16,0.00
2013-2-12,65,48,32,49,19,-8,75,37,17,30.29,30.14,13,1,13,0.00
2013-2-13,72,52,35,37,30,24,77,47,18,30.23,30.06,10,0,10,0.00
2013-2-14,76,55,37,36,30,12,83,46,14,30.13,29.99,13,1,13,0.00
2013-2-15,79,65,43,39,26,21,62,30,13,30.15,30.05,16,1,16,0.00
2013-2-16,79,65,44,27,19,8,49,22,9,30.13,29.87,12,0,12,0.00
2013-2-17,72,51,39,44,27,-11,72,47,11,29.95,29.80,12,0,12,0.00
2013-2-18,66,53,49,49,43,37,87,70,46,30.00,29.84,7,1,7,0.00
2013-2-19,53,48,40,45,40,36,89,73,58,29.90,29.65,13,1,13,0.20
2013-2-20,60,46,37,36,29,24,85,54,30,29.95,29.64,12,1,13,0.00
2013-2-21,60,45,32,44,33,20,85,64,22,30.04,29.91,11,1,11,0.00
2013-2-22,66,47,36,37,30,3,78,57,25,30.13,30.02,10,0,10,0.00
2013-2-23,67,51,38,44,31,25,59,48,31,30.10,29.82,17,1,17,0.00
2013-2-24,66,54,42,30,12,4,45,20,9,30.15,29.96,24,2,24,0.00
2013-2-25,69,50,34,29,21,13,63,35,14,30.19,29.99,12,0,12,0.00
2013-2-26,73,55,36,32,22,11,73,35,11,30.07,29.93,18,1,18,0.00
2013-2-27,72,57,40,24,16,9,47,23,10,30.21,30.06,18,1,18,0.00
2013-2-28,79,63,46,26,16,1,35,18,9,30.25,30.13,11,1,11,0.00
2013-3-1,85,64,45,32,25,19,50,26,10,30.25,30.06,8,0,8,0.00
2013-3-2,83,64,46,37,30,23,60,32,13,30.16,30.00,11,0,11,0.00
2013-3-3,73,58,48,44,41,30,78,56,30,30.02,29.88,14,1,14,0.00
2013-3-4,73,56,46,50,46,41,89,70,42,30.03,29.92,7,0,7,0.00
2013-3-5,65,53,45,50,46,42,89,78,57,30.06,29.95,10,0,10,0.00
2013-3-6,57,53,43,46,44,39,87,72,56,30.09,29.94,9,0,9,0.00
2013-3-7,58,52,48,46,42,35,88,71,44,29.94,29.76,13,0,13,0.17
2013-3-8,57,48,42,46,40,36,90,75,49,29.96,29.73,13,1,13,0.51
2013-3-9,66,52,41,42,38,33,87,61,30,30.16,29.96,12,1,12,0.00
2013-3-10,77,58,41,38,28,15,75,40,10,30.21,30.07,17,1,17,0.00
2013-3-11,82,59,41,43,31,22,70,40,12,30.13,29.93,8,0,8,0.00
2013-3-12,88,64,43,44,36,26,76,41,12,30.01,29.87,8,0,8,0.00
2013-3-13,93,67,47,42,36,26,71,38,11,30.04,29.91,8,0,8,0.00
2013-3-14,91,70,48,45,38,32,76,36,13,30.02,29.91,11,0,11,0.00
2013-3-15,88,66,50,51,45,27,80,50,12,29.94,29.82,10,0,10,0.00
2013-3-16,82,64,51,52,48,40,89,58,25,29.90,29.73,11,0,11,0.00
2013-3-17,80,62,47,52,44,29,87,59,19,29.90,29.82,7,0,7,0.00
2013-3-18,69,59,50,52,47,44,84,67,48,30.01,29.86,11,0,11,0.00
2013-3-19,78,59,45,51,46,38,90,66,27,30.05,29.93,13,1,13,0.00
2013-3-20,73,61,50,50,46,40,85,60,32,30.01,29.84,13,1,13,0.00
2013-3-21,80,67,0,50,45,0,83,47,29,29.86,29.69,10,0,10,0.00
2013-3-22,80,67,43,43,30,19,77,27,15,29.84,29.72,13,1,13,0.00
2013-3-23,80,58,41,47,34,25,70,44,14,29.93,29.82,13,1,13,0.00
2013-3-24,83,61,45,50,37,27,85,46,16,29.95,29.80,11,0,11,0.00
2013-3-25,80,61,45,50,42,32,86,54,21,29.90,29.80,6,0,6,0.00
2013-3-26,77,59,45,51,46,40,88,64,32,29.89,29.81,10,0,10,0.00
2013-3-27,75,58,47,52,47,43,87,69,43,29.97,29.85,11,0,11,0.00
2013-3-28,80,60,47,53,48,43,89,69,36,30.01,29.91,10,0,10,0.00
2013-3-29,84,63,47,54,46,35,89,60,21,30.04,29.93,10,0,10,0.00
2013-3-30,79,65,51,57,45,27,87,54,17,30.06,29.94,12,1,14,0.00
2013-3-31,72,64,53,55,48,32,83,58,36,30.06,29.97,8,0,8,0.02
2013-4-1,66,56,51,49,47,45,85,72,51,30.11,30.00,17,2,17,0.00
2013-4-2,77,60,45,51,46,40,90,66,31,30.04,29.89,7,1,11,0.00
2013-4-3,85,64,47,56,47,34,88,60,18,30.01,29.89,7,0,8,0.00
2013-4-4,76,61,54,57,50,45,87,71,35,30.04,29.89,17,2,19,0.00
2013-4-5,75,62,54,56,51,47,85,69,39,30.00,29.89,16,1,16,0.00
2013-4-6,77,62,49,52,48,42,90,65,30,30.00,29.86,14,1,14,0.00
2013-4-7,81,69,51,53,45,37,80,46,24,29.87,29.70,13,1,16,0.00
2013-4-8,67,59,51,50,39,27,75,50,24,29.77,29.57,17,1,17,0.00
2013-4-9,75,58,42,38,31,19,71,40,14,29.95,29.77,18,1,18,0.00
2013-4-10,84,68,48,36,27,16,49,25,9,30.03,29.88,13,1,17,0.00
2013-4-11,79,62,45,49,41,35,77,49,24,29.91,29.68,7,0,7,0.00
2013-4-12,84,63,51,54,49,46,85,64,33,29.80,29.67,10,0,12,0.00
2013-4-13,70,58,52,53,50,47,86,75,53,29.84,29.74,10,0,10,0.00
2013-4-14,64,57,54,50,48,47,81,72,60,29.81,29.74,7,0,8,0.00
2013-4-15,66,57,52,49,47,42,82,70,50,29.81,29.75,10,0,10,0.00
2013-4-16,66,54,44,42,36,23,82,52,27,29.94,29.78,14,1,14,0.00
2013-4-17,73,56,41,32,26,13,63,36,10,30.08,29.94,16,1,16,0.00
2013-4-18,78,63,45,30,19,12,55,20,8,30.16,30.03,21,2,21,0.00
2013-4-19,85,65,46,36,26,14,57,27,8,30.11,29.91,13,1,13,0.00
2013-4-20,93,70,52,43,36,30,58,33,11,29.91,29.77,13,1,13,0.00
2013-4-21,90,69,50,48,43,32,76,44,14,29.91,29.82,10,0,10,0.00
2013-4-22,80,63,53,53,49,44,86,64,31,29.93,29.77,8,0,8,0.00
2013-4-23,82,64,53,52,49,45,84,62,28,29.89,29.74,10,1,10,0.00
2013-4-24,59,57,55,52,49,46,85,76,67,29.92,29.81,8,0,8,0.00
2013-4-25,72,61,53,48,46,43,80,60,39,30.05,29.89,12,1,12,0.00
2013-4-26,82,64,47,52,47,42,82,57,32,30.08,29.99,10,0,10,0.00
2013-4-27,88,69,50,54,46,36,84,48,17,30.05,29.87,16,1,16,0.00
2013-4-28,92,71,60,56,52,39,73,55,18,29.91,29.71,11,0,11,0.00
2013-4-29,85,66,56,56,52,45,87,63,33,29.82,29.67,6,0,6,0.00
2013-4-30,71,61,56,53,51,48,83,70,51,29.81,29.73,8,0,8,0.00
2013-5-1,86,67,56,54,51,47,81,61,28,30.01,29.81,11,0,11,0.00
2013-5-2,89,72,50,51,25,4,87,33,5,30.06,29.92,19,1,19,0.00
2013-5-3,96,73,54,42,24,12,40,19,6,29.94,29.69,14,0,14,0.00
2013-5-4,78,64,50,54,46,29,75,54,30,29.75,29.64,8,0,8,0.00
2013-5-5,64,58,56,50,48,46,79,70,58,29.86,29.74,7,0,7,0.00
2013-5-6,67,58,54,56,51,43,91,78,46,29.94,29.81,9,0,12,0.26
2013-5-7,69,60,55,53,49,46,84,67,48,29.99,29.90,11,0,11,0.00
2013-5-8,72,60,52,51,47,42,83,63,43,30.03,29.97,16,1,16,0.00
2013-5-9,77,62,48,54,49,44,85,64,39,30.03,29.92,13,0,13,0.00
2013-5-10,86,69,53,55,51,44,87,58,24,30.00,29.90,17,1,17,0.00
2013-5-11,98,75,56,58,51,39,87,50,15,29.98,29.88,13,0,13,0.00
2013-5-12,102,80,60,59,50,33,81,43,9,29.96,29.82,16,1,16,0.00
2013-5-13,99,79,64,58,45,31,66,35,12,29.86,29.79,18,1,20,0.00
2013-5-14,87,71,57,54,45,32,64,42,17,29.90,29.78,17,1,17,0.00
2013-5-15,80,66,53,56,51,46,80,59,42,29.95,29.84,10,0,10,0.00
2013-5-16,77,63,55,55,52,50,85,69,44,29.91,29.80,11,0,11,0.00
2013-5-17,74,65,57,55,52,47,79,64,46,29.91,29.82,12,0,12,0.00
2013-5-18,78,65,52,55,51,47,87,62,39,29.97,29.86,11,1,11,0.00
2013-5-19,85,69,50,54,48,36,84,53,18,29.91,29.76,14,1,14,0.00
2013-5-20,95,72,54,56,47,35,86,48,13,29.86,29.77,11,0,11,0.00
2013-5-21,89,70,60,60,55,42,82,62,32,29.86,29.71,13,0,13,0.00
2013-5-22,78,66,59,56,53,44,83,64,44,29.75,29.66,11,0,11,0.00
2013-5-23,72,63,55,53,48,42,77,61,44,29.85,29.73,11,0,11,0.00
2013-5-24,75,61,48,55,48,41,83,62,44,29.90,29.84,13,1,13,0.00
2013-5-25,75,61,49,54,48,44,85,65,44,29.94,29.87,11,0,11,0.00
2013-5-26,76,63,50,55,50,45,87,65,45,29.97,29.90,11,0,11,0.00
2013-5-27,81,66,51,56,51,46,88,62,33,29.92,29.76,13,1,13,0.00
2013-5-28,84,70,55,54,51,48,86,57,29,29.79,29.64,13,1,13,0.00
2013-5-29,91,73,57,54,49,41,77,47,21,29.70,29.59,20,1,20,0.00
2013-5-30,87,71,56,59,54,50,83,57,37,29.77,29.66,5,0,6,0.00
2013-5-31,88,72,60,60,56,52,85,60,35,29.82,29.70,12,0,12,0.00
2013-6-1,101,75,58,60,55,41,83,56,14,29.76,29.60,12,0,12,0.00
2013-6-2,83,69,62,60,57,54,83,69,44,29.73,29.65,5,0,8,0.00
2013-6-3,80,68,59,57,54,52,82,64,39,29.82,29.70,6,0,6,0.00
2013-6-4,79,66,57,57,54,50,82,66,43,29.88,29.79,11,1,11,0.00
2013-6-5,83,65,54,56,53,49,85,68,36,29.93,29.80,12,1,12,0.00
2013-6-6,83,66,54,60,54,50,88,69,42,29.88,29.75,8,1,8,0.00
2013-6-7,85,67,57,60,56,52,86,69,41,29.82,29.66,6,0,6,0.00
2013-6-8,82,67,58,60,56,53,86,70,44,29.82,29.69,6,0,6,0.00
2013-6-9,83,67,58,59,55,52,84,68,38,29.85,29.76,7,0,7,0.00
2013-6-10,80,67,58,56,52,49,84,62,39,29.88,29.80,12,0,12,0.00
2013-6-11,91,71,56,62,54,50,86,58,26,29.85,29.77,11,0,11,0.00
2013-6-12,82,68,59,59,56,54,85,67,43,29.93,29.82,10,0,10,0.00
2013-6-13,85,69,58,59,55,52,86,65,40,29.94,29.79,11,1,11,0.00
2013-6-14,84,69,55,59,55,51,87,64,36,29.83,29.73,7,0,7,0.00
2013-6-15,82,67,58,57,54,46,86,65,34,29.88,29.79,10,0,10,0.00
2013-6-16,86,69,55,57,53,44,87,61,26,29.96,29.83,12,1,12,0.00
2013-6-17,91,72,54,59,52,36,85,56,17,29.88,29.76,14,1,14,0.00
2013-6-18,86,71,56,57,52,46,85,56,25,29.82,29.72,12,1,12,0.00
2013-6-19,87,72,55,54,46,32,80,46,16,29.79,29.65,16,1,16,0.00
2013-6-20,88,73,57,54,48,38,68,44,24,29.75,29.69,12,0,12,0.00
2013-6-21,86,71,54,55,48,38,77,46,27,29.81,29.72,8,0,10,0.00
2013-6-22,86,70,56,58,53,46,77,55,34,29.81,29.70,12,1,12,0.00
2013-6-23,78,66,58,58,55,51,85,68,49,29.79,29.69,8,0,10,0.00
2013-6-24,69,65,59,57,55,53,82,71,61,29.85,29.74,7,0,7,0.00
2013-6-25,82,70,58,62,57,54,89,66,44,29.91,29.80,11,0,11,0.00
2013-6-26,94,78,61,61,58,54,82,54,28,29.88,29.80,12,0,12,0.00
2013-6-27,99,82,64,62,58,53,79,49,22,29.92,29.85,11,0,11,0.00
2013-6-28,102,84,67,61,57,50,71,42,24,29.88,29.72,14,0,14,0.00
2013-6-29,105,78,67,62,58,51,72,54,19,29.77,29.62,7,0,13,0.00
2013-6-30,105,83,68,64,60,58,72,49,22,29.70,29.60,3,0,8,0.00
2013-7-1,96,80,68,62,57,50,77,49,21,29.77,29.68,2,0,4,0.00
2013-7-2,95,79,66,61,57,52,77,50,24,29.86,29.77,4,0,9,0.00
2013-7-3,94,78,65,63,58,54,80,53,30,29.81,29.68,2,0,8,0.00
2013-7-4,94,81,65,62,55,49,80,44,23,29.73,29.62,10,0,10,0.00
2013-7-5,88,73,62,62,57,50,84,59,28,29.76,29.65,6,0,6,0.00
2013-7-6,92,77,63,63,60,56,83,58,35,29.74,29.62,11,1,12,0.00
2013-7-7,94,76,61,63,54,32,87,54,14,29.75,29.65,11,1,11,0.00
2013-7-8,98,79,61,61,50,39,82,44,14,29.80,29.75,12,1,16,0.00
2013-7-9,100,82,64,60,54,41,70,41,19,29.85,29.79,7,0,7,0.00
2013-7-10,85,76,69,62,58,52,69,54,32,29.87,29.80,5,0,8,0.00
2013-7-11,77,72,67,63,61,57,82,69,61,29.88,29.80,5,0,5,0.00
2013-7-12,90,75,63,66,59,55,87,62,33,29.84,29.74,10,0,11,0.00
2013-7-13,94,76,60,60,54,34,81,51,14,29.85,29.75,12,1,12,0.00
2013-7-14,98,78,60,61,54,45,82,50,20,29.83,29.70,14,1,14,0.00
2013-7-15,93,77,62,59,50,37,77,45,14,29.77,29.69,16,1,16,0.00
2013-7-16,92,73,55,54,46,35,80,43,16,29.87,29.76,13,0,13,0.00
2013-7-17,95,75,56,51,43,29,76,38,13,29.93,29.85,12,1,12,0.00
2013-7-18,96,75,57,57,49,41,75,44,20,29.89,29.75,12,1,12,0.00
2013-7-19,95,75,60,58,54,48,80,51,24,29.81,29.70,11,0,11,0.00
2013-7-20,90,72,60,65,58,52,84,64,29,29.81,29.66,7,0,10,0.00
2013-7-21,79,72,66,63,60,56,78,66,54,29.83,29.71,7,0,7,0.00
2013-7-22,90,76,66,63,60,57,84,60,36,29.87,29.80,10,0,10,0.00
2013-7-23,93,75,64,62,57,51,79,56,32,29.92,29.82,12,1,13,0.00
2013-7-24,92,76,62,62,56,50,79,53,26,29.87,29.77,13,1,16,0.00
2013-7-25,94,75,62,61,57,55,81,57,29,29.90,29.80,12,1,12,0.00
2013-7-26,86,74,66,63,59,56,76,60,42,30.00,29.86,8,0,8,0.00
2013-7-27,92,76,65,62,58,54,77,56,32,29.91,29.75,11,0,11,0.00
2013-7-28,86,69,59,61,57,53,85,67,37,29.84,29.74,11,0,11,0.00
2013-7-29,88,70,59,58,53,44,85,60,24,29.93,29.82,8,0,8,0.00
2013-7-30,87,70,57,58,54,45,83,61,25,30.03,29.92,12,1,12,0.00
2013-7-31,84,67,56,58,54,50,85,66,38,30.03,29.89,12,1,13,0.00
2013-8-1,86,68,55,58,54,50,87,65,38,29.95,29.79,8,0,8,0.00
2013-8-2,87,69,56,59,55,51,87,63,36,29.87,29.78,12,0,12,0.00
2013-8-3,88,69,57,60,55,52,87,64,31,29.91,29.80,12,0,12,0.00
2013-8-4,89,70,56,59,53,41,88,60,24,29.93,29.82,12,1,12,0.00
2013-8-5,92,72,54,61,49,29,86,52,14,29.91,29.81,13,0,13,0.00
2013-8-6,88,70,55,59,54,50,86,61,30,29.94,29.86,11,0,11,0.00
2013-8-7,87,70,56,58,53,41,86,57,20,29.98,29.83,157,2,157,0.00
2013-8-8,88,69,55,57,52,48,85,58,30,29.91,29.80,11,0,11,0.00
2013-8-9,86,68,54,59,52,46,87,60,30,29.86,29.80,12,0,12,0.00
2013-8-10,86,68,56,57,53,49,86,63,34,29.95,29.85,8,1,13,0.00
2013-8-11,88,70,56,57,54,47,87,60,28,29.90,29.78,12,1,12,0.00
2013-8-12,91,71,56,59,55,52,87,60,30,29.88,29.78,10,1,13,0.00
2013-8-13,94,74,58,60,56,51,88,59,27,29.89,29.76,12,0,12,0.00
2013-8-14,100,76,58,60,54,37,87,54,14,29.83,29.70,12,0,12,0.00
2013-8-15,99,81,60,62,55,48,86,47,18,29.83,29.76,10,0,10,0.00
2013-8-16,98,79,63,59,51,37,77,42,15,29.85,29.78,11,0,11,0.00
2013-8-17,100,79,63,56,51,39,74,43,13,29.84,29.70,13,0,13,0.00
2013-8-18,100,76,60,58,52,36,80,50,13,29.79,29.67,8,0,8,0.00
2013-8-19,93,75,63,62,58,54,80,58,29,29.83,29.72,11,0,11,0.00
2013-8-20,98,75,60,64,54,38,85,55,15,29.83,29.73,10,0,10,0.00
2013-8-21,98,77,60,58,50,32,81,46,10,29.82,29.72,11,0,11,0.00
2013-8-22,102,79,61,54,47,32,72,38,9,29.82,29.70,13,1,13,0.00
2013-8-23,98,77,58,54,48,37,78,41,13,29.76,29.63,10,0,10,0.00
2013-8-24,98,75,57,54,46,35,75,41,12,29.78,29.64,11,0,11,0.00
2013-8-25,98,76,56,54,44,26,70,39,9,29.82,29.73,8,0,8,0.00
2013-8-26,96,78,60,62,49,36,62,38,26,29.84,29.73,12,0,12,0.00
2013-8-27,97,81,70,60,52,41,62,38,26,29.75,29.65,16,0,16,0.00
2013-8-28,99,80,66,62,50,35,66,37,18,29.79,29.68,10,0,10,0.00
2013-8-29,104,83,65,56,49,37,62,33,15,29.84,29.75,12,0,12,0.00
2013-8-30,97,86,70,67,63,50,66,47,34,29.87,29.80,7,0,7,0.00
2013-8-31,94,82,74,70,66,62,77,60,38,29.86,29.76,11,0,11,0.00
2013-9-1,93,80,72,68,65,63,80,62,41,29.83,29.73,11,0,11,0.00
2013-9-2,96,79,68,67,62,54,83,59,29,29.81,29.70,10,0,10,0.00
2013-9-3,99,82,68,65,59,52,80,50,22,29.80,29.70,12,0,12,0.00
2013-9-4,103,83,68,63,56,50,74,44,19,29.81,29.71,14,1,14,0.00
2013-9-5,102,84,67,63,51,35,65,37,15,29.79,29.70,14,0,14,0.00
2013-9-6,104,83,65,59,49,40,68,35,15,29.78,29.67,14,0,14,0.00
2013-9-7,102,82,66,56,46,32,61,31,12,29.77,29.67,16,1,16,0.00
2013-9-8,96,79,63,58,46,29,70,36,12,29.75,29.64,17,1,17,0.00
2013-9-9,92,76,64,58,51,38,69,46,16,29.71,29.60,12,1,12,0.00
2013-9-10,88,69,59,58,54,44,86,61,25,29.84,29.69,10,0,10,0.00
2013-9-11,88,71,58,59,56,52,85,62,31,29.91,29.81,10,0,10,0.00
2013-9-12,96,69,58,58,52,43,87,60,19,29.85,29.72,12,0,12,0.00
2013-9-13,97,74,58,56,50,42,76,45,20,29.73,29.56,12,0,12,0.00
2013-9-14,100,79,61,56,51,47,72,43,19,29.62,29.52,12,0,12,0.00
2013-9-15,100,79,61,58,52,36,78,45,12,29.67,29.58,13,1,13,0.00
2013-9-16,98,77,60,57,49,37,80,44,14,29.74,29.62,11,0,11,0.00
2013-9-17,92,71,57,58,51,44,85,54,23,29.72,29.61,11,0,11,0.00
2013-9-18,84,69,59,58,55,53,85,64,41,29.72,29.63,10,1,11,0.00
2013-9-19,91,69,56,59,55,52,87,65,28,29.74,29.63,11,0,11,0.00
2013-9-20,77,66,61,60,58,56,85,76,55,29.81,29.71,6,0,6,0.00
2013-9-21,79,66,59,57,54,49,81,68,39,29.83,29.71,17,1,17,0.00
2013-9-22,83,67,52,53,45,32,88,51,21,29.77,29.67,13,0,13,0.00
2013-9-23,96,73,54,50,41,32,70,37,12,29.79,29.72,8,0,8,0.00
2013-9-24,91,70,55,54,43,35,76,43,15,29.84,29.74,14,0,14,0.00
2013-9-25,77,65,54,57,52,45,84,64,47,29.75,29.60,6,0,6,0.00
2013-9-26,76,63,53,51,43,33,83,53,22,29.82,29.64,19,1,19,0.00
2013-9-27,84,66,48,40,31,23,69,33,11,29.92,29.82,12,1,12,0.00
2013-9-28,89,68,50,39,32,22,57,30,10,29.96,29.88,11,0,11,0.00
2013-9-29,91,68,49,44,34,25,63,34,11,30.00,29.87,11,0,11,0.00
2013-9-30,91,70,51,53,42,32,69,42,13,29.91,29.74,13,0,13,0.00
2013-10-1,86,67,53,54,50,44,85,57,28,29.85,29.76,7,0,7,0.00
2013-10-2,80,65,56,58,54,49,85,69,42,29.90,29.77,10,0,10,0.00
2013-10-3,75,64,56,57,54,50,87,72,50,29.85,29.72,11,0,11,0.00
2013-10-4,82,68,52,52,32,15,90,42,9,29.96,29.80,13,1,13,0.00
2013-10-5,85,75,60,27,22,16,25,14,9,30.05,29.95,16,1,16,0.00
2013-10-6,94,70,51,38,26,17,51,22,6,30.03,29.87,8,0,8,0.00
2013-10-7,87,67,54,42,34,24,58,32,11,29.90,29.80,11,0,11,0.00
2013-10-8,76,60,49,53,47,34,85,63,40,29.85,29.73,6,0,6,0.00
2013-10-9,61,56,48,51,46,39,83,70,49,29.75,29.62,20,1,20,0.00
2013-10-10,66,53,43,48,44,39,89,72,50,29.96,29.74,9,0,9,0.00
2013-10-11,78,61,46,50,46,42,90,62,29,29.98,29.86,8,0,11,0.00
2013-10-12,78,60,47,50,44,34,87,61,22,29.90,29.79,10,0,10,0.00
2013-10-13,69,58,50,52,49,45,88,74,51,29.95,29.85,8,0,8,0.00
2013-10-14,83,62,48,51,39,28,90,53,16,29.97,29.83,5,0,12,0.00
2013-10-15,84,66,50,42,33,26,61,33,12,29.91,29.79,8,0,8,0.00
2013-10-16,85,65,51,43,30,21,55,31,11,30.01,29.90,10,0,10,0.00
2013-10-17,82,63,47,38,32,26,64,36,14,29.98,29.84,18,1,18,0.00
2013-10-18,90,65,47,50,36,22,74,41,10,29.94,29.83,7,0,7,0.00
2013-10-19,88,66,49,41,33,24,62,35,11,29.96,29.85,13,0,13,0.00
2013-10-20,83,62,46,53,43,35,78,53,26,29.91,29.79,8,0,8,0.00
2013-10-21,85,62,48,54,47,41,89,63,22,29.91,29.80,7,0,7,0.00
2013-10-22,86,63,48,53,46,39,83,59,21,29.93,29.78,5,0,5,0.00
2013-10-23,77,59,51,55,51,48,90,76,44,29.90,29.79,7,0,7,0.00
2013-10-24,75,61,53,54,51,48,85,71,46,29.98,29.85,8,0,8,0.00
2013-10-25,81,60,49,55,50,45,90,74,40,30.07,29.91,6,0,6,0.00
2013-10-26,87,65,50,63,45,30,90,56,14,30.02,29.88,6,0,8,0.00
2013-10-27,80,60,48,52,45,37,79,60,30,29.92,29.71,6,0,11,0.00
2013-10-28,63,55,48,50,45,38,83,70,43,29.87,29.70,17,1,17,0.02
2013-10-29,62,52,46,49,46,43,91,78,55,29.95,29.85,9,0,9,0.05
2013-10-30,73,54,43,48,41,33,90,66,26,30.01,29.90,11,0,11,0.00
2013-10-31,81,58,43,43,36,25,84,51,15,30.04,29.91,7,0,7,0.00
2013-11-1,85,62,44,40,33,27,72,39,15,30.06,29.87,5,0,5,0.00
2013-11-2,79,60,46,42,36,29,70,45,17,29.94,29.78,8,0,8,0.00
2013-11-3,69,58,48,52,48,40,83,71,52,29.85,29.73,7,0,7,0.00
2013-11-4,68,58,48,52,48,41,87,70,42,29.89,29.72,8,0,8,0.00
2013-11-5,72,61,46,42,20,8,80,24,11,30.09,29.88,16,1,16,0.00
2013-11-6,80,60,44,31,20,11,52,24,9,30.16,30.06,11,0,11,0.00
2013-11-7,86,62,49,35,26,17,47,28,8,30.08,29.92,7,0,7,0.00
2013-11-8,82,59,44,42,34,26,70,43,15,29.98,29.84,3,0,6,0.00
2013-11-9,80,56,42,43,33,20,83,49,11,30.02,29.91,3,0,3,0.00
2013-11-10,81,58,44,49,38,14,74,52,10,30.07,29.95,10,0,10,0.00
2013-11-11,82,60,44,43,36,25,80,47,13,30.06,29.94,6,0,7,0.00
2013-11-12,78,62,50,52,42,33,68,49,27,30.11,29.99,2,0,2,0.00
2013-11-13,87,65,52,41,31,21,52,31,9,30.01,29.83,10,0,11,0.00
2013-11-14,87,66,54,40,32,26,53,31,11,29.88,29.67,10,0,10,0.00
2013-11-15,67,57,48,52,47,38,85,70,53,29.69,29.59,5,0,5,0.00
2013-11-16,61,54,50,52,48,44,88,79,57,29.87,29.67,5,0,5,0.00
2013-11-17,66,54,45,50,46,42,90,76,52,30.03,29.87,6,0,6,0.00
2013-11-18,66,54,45,51,47,42,91,77,52,30.09,29.98,8,0,8,0.00
2013-11-19,65,55,47,50,48,44,90,77,57,30.02,29.87,5,0,6,0.00
2013-11-20,64,56,49,53,50,45,90,81,64,29.91,29.80,5,0,5,0.10
2013-11-21,59,56,53,55,51,41,92,84,63,29.82,29.74,8,0,8,0.20
2013-11-22,55,52,51,41,37,36,65,56,49,29.92,29.80,20,2,20,0.00
2013-11-23,59,52,43,41,37,35,80,57,42,30.05,29.91,12,0,12,0.00
2013-11-24,65,52,43,41,38,32,83,62,33,30.15,30.02,8,0,11,0.00
2013-11-25,72,55,0,41,36,0,80,54,23,30.19,30.07,8,0,8,0.00
2013-11-26,61,49,43,54,41,29,78,74,47,30.15,29.97,5,1,5,0.00
2013-11-27,70,58,45,58,39,20,79,54,26,29.99,29.79,7,0,7,0.00
2013-11-28,66,53,43,50,40,35,81,62,37,30.00,29.82,7,0,7,0.00
2013-11-29,59,53,47,52,47,42,91,81,69,30.13,29.99,8,0,8,0.06
2013-11-30,72,56,45,51,39,28,84,58,25,30.14,30.01,6,0,10,0.00
2013-12-1,75,59,46,48,32,24,70,43,15,30.18,30.04,12,0,12,0.00
2013-12-2,66,48,45,55,36,31,68,62,47,30.07,29.86,0,0,0,0.00
2013-12-3,63,50,40,50,41,34,83,71,56,29.86,29.68,7,0,7,0.00
2013-12-4,57,45,36,41,26,14,83,53,18,29.89,29.71,7,0,7,0.00
2013-12-5,55,43,32,35,27,16,81,55,33,30.04,29.88,129,3,129,0.00
2013-12-6,55,42,37,40,28,0,84,59,46,30.13,30.01,129,26,129,0.00
2013-12-7,53,42,33,47,34,26,91,76,50,30.08,29.92,11,0,16,0.14
2013-12-8,52,43,29,36,28,23,82,58,42,30.16,30.04,6,0,6,0.00
2013-12-9,53,49,31,31,6,-7,61,20,10,30.27,30.13,22,1,22,0.00
2013-12-10,60,48,33,16,7,-2,42,22,10,30.23,30.03,6,0,6,0.00
2013-12-11,66,58,0,16,6,0,15,11,11,30.11,30.02,65,42,65,0.00
2013-12-15,76,66,49,29,4,0,41,3,12,30.18,30.02,1,0,8,0.00
2013-12-16,49,48,47,29,5,0,49,8,41,30.09,29.99,0,0,0,0.00
2013-12-17,48,48,48,0,0,0,0,0,100,30.06,29.94,0,0,0,0.00
2013-12-18,69,54,48,48,5,0,83,6,45,29.94,29.76,0,0,3,0.00
2013-12-19,54,52,50,44,2,0,75,3,72,29.77,29.61,2,0,5,0.00
2013-12-20,62,55,40,41,6,0,84,9,30,29.88,29.72,2,0,10,0.00
2013-12-21,61,52,38,58,37,0,90,63,58,30.03,29.84,6,0,6,0.00
2013-12-22,67,51,45,52,39,33,80,65,29,30.22,30.02,7,0,7,0.00
2013-12-23,73,56,46,42,36,29,80,53,22,30.27,30.13,11,0,11,0.00
2013-12-24,77,58,44,39,32,27,68,43,16,30.15,30.02,10,0,10,0.00
2013-12-25,74,64,48,32,21,9,52,21,11,30.15,30.06,18,1,18,0.00
2013-12-26,75,58,44,25,15,6,37,21,8,30.12,30.01,18,0,18,0.00
2013-12-27,80,57,42,28,19,11,47,25,8,30.12,29.94,2,0,2,0.00
2013-12-28,73,57,44,39,27,21,59,35,15,29.97,29.81,6,0,7,0.00
2013-12-29,71,63,41,31,11,5,66,15,9,30.09,29.93,21,1,21,0.00
2013-12-30,72,52,39,25,18,9,53,30,9,30.21,30.09,1,0,1,0.00
2013-12-31,72,51,37,33,27,20,67,43,15,30.15,30.00,2,0,2,0.00
2014-1-1,78,54,38,31,27,19,71,40,12,30.07,29.96,5,0,8,0.00
2014-1-2,77,57,44,34,28,23,55,37,14,30.06,29.92,1,0,3,0.00